Погода в Мужи

Погода в Мужи : погода сейчас, прогноз погоды и архив. Всё, что Вы хотите узнать о погоде в Мужи!

Хотите узнать прогноз погоды в Мужи? Тогда Вам сюда: Погода в Мужи

Поиск расширенной информации на нашем сайте:

Другие новости

Новости СМИ2

Главная страница сайта

Новости сайта

03.07.2017

Напоминаем, что на нашем специализированном сайте Метеоцентр.Азия вы можете получить высокодетализированные автоматические прогнозы погоды по пунктам России, СНГ и мира в авиационном формате (включающие направление и скорость ветра, видимость, явления погоды, количество и форму облачности, нижнюю и верхнюю границу облачности).


Погода в Мужи - сегодня

Время (UTC), дата Ветер
(°,м/с) 
Видим.   Явления Облачность Т
(°С)
Тd
(°С)
f(%) Тe
(°С)
Pmin
(гПа)
dP
(гПа)
Po
(мм)
O2
(г/м3)
Тmin Tmax R s Состояние
почвы
00 21.11.17 350 (С) 4100 м  слаб. снег [диам. изморози 8 мм]  10/10 300 м 
[Ns]
-11.1 -12.6 89 -11  1014.8  -1.6  759  320           
03 21.11.17 350 (С) 4300 м  слаб. снег [диам. изморози 8 мм]  10/10 300 м 
[Ns]
-10.5 -12 89 -12  1013.4  -1.4  758  319  -12.8    37  равномерный
сухой снег
100% 
06 21.11.17 350 (С) 4700 м  слаб. снег [диам. изморози 8 мм]  10/10 300 м 
[Ns]
-10.6 -12.1 89 -15  1013.1  -0.3  758  319           
09 21.11.17 350 (С) н/о  позёмок{снег} [диам. изморози 7 мм]  4/0 средняя, верхняя 
[As op|Ci fib]
-11.1 -12.7 88 -14  1015.3  2.2  760  320           
12 21.11.17 360 (С) 50000 м  позёмок{снег} [диам. изморози 7 мм]  10/0 средняя, верхняя 
[Ac As|Ci fib]
-11.4 -13 88 -16  1017.9  2.5  762  321           
15 21.11.17 020 (С) 10 км  слаб. снег [диам. изморози 7 мм]  10/0 средняя 
[Ac As]
-11.4 -13 88 -16  1020.4  2.5  763  322    -10.4     
18 21.11.17 360 (С) 50000 м  позёмок{снег} [диам. изморози 3 мм]  10/0 средняя 
[Ac As]
-12.4 -14.2 86 -17  1021.8  1.4  764  324           
21 21.11.17 010 (С) 50000 м  позёмок [диам. изморози 2 мм]  10/0 средняя 
[Ac As]
-13.3 -15.2 86 -18  1023.2  1.4  766  326           
00 22.11.17 360 (С) 50000 м  позёмок [диам. изморози 2 мм]  10/0 средняя 
[Ac As]
-13.3 -16.1 79 -18  1023.2  0.2  766  326           
03 22.11.17 010 (С) 7000 м  слаб. снег [диам. изморози 2 мм]  10/0 средняя 
[Ac As]
-14.7 -16.8 84 -19  1023.6  0.2  766  328  -14.8    0.7  43  равномерный
сухой снег
100% 
06 22.11.17 010 (С) 8000 м  слаб. снег [диам. изморози 1 мм]  10/3 300 м средняя 
[Frnb|As op]
-15.9 -18 84 -22  1023.9  0.3  766  329  -15.9         
09 22.11.17 010 (С) 5{10}  6000 м  слаб. снег [диам. изморози 1 мм]  10/3 300 м средняя 
[Frnb|As op]
-16.8 -19.1 82 -23  1024  0.1  766  330           
12 22.11.17 360 (С) 5{10}  9000 м  слаб. снег [диам. изморози 0 мм]  10/3 300 м средняя 
[Frnb|As op]
-16.5 -18.7 83 -22  1023.8  -0.2  766  330           
15 22.11.17 360 (С) 6{10}  7000 м  слаб. снег  10/4 300 м средняя 
[Frnb|As op]
-15.8 -18 83 -22  1023.4  -0.4  766  329    -14.7     
18 22.11.17 010 (С) 6{10}  6000 м  слаб. снег  10/4 300 м средняя 
[Frnb|As op]
-16.1 -18.3 83 -23  1023.1  -0.3  765  329           
21 22.11.17 360 (С) 5{10}  8000 м  слаб. снег  10/3 300 м средняя 
[Frnb|As op]
-16.4 -18.6 83 -22  1023  -0.1  765  330           
00 23.11.17 010 (С) 5{10}  11000 м  слаб. снег  10/3 300 м средняя 
[Frnb|As op]
-16.4 -18.9 81 -22  1023  765  330           
03 23.11.17 010 (С) 14000 м  слаб. снег  10/3 300 м средняя 
[Frnb|As op]
-17.3 -19.9 80 -23  1022.7  -0.4  765  331  -17.3    42  неравномерный
сухой снег
100% 
06 23.11.17 360 (С) 9000 м  слаб. снег  10/4 300 м средняя 
[Frnb|As op]
-18.1 -20.8 79 -24  1022.2  -0.4  765  332  -18.1         
09 23.11.17 360 (С) 11000 м  слаб. снег  10/3 300 м средняя 
[Frnb|As op]
-18.1 -20.9 79 -24  1022.2  765  332           
12 23.11.17 350 (С) 10 км  слаб. снег  10/3 300 м средняя 
[Frnb|As op]
-18.1 -20.9 79 -23  1020.8  -1.4  764  331           
15 23.11.17 350 (С) 10 км  слаб. снег  10/4 300 м средняя 
[Frnb|As op]
-17.4 -20.2 79 -22  1019.3  -1.5  763  330    -17.3  0.8     
18 23.11.17 330 (СЗ) 3100 м  слаб. снег  10/10 300 м 
[Ns]
-16.5 -19.1 80 -20  1016.8  -2.5  761  328           
21 23.11.17 340 (С) 1700 м  снег  10/10 300 м 
[Ns]
-15.7 -18.2 81 -18  1014.2  -2.6  759  326           
00 24.11.17 350 (С) 1800 м  снег  10/10 300 м 
[Ns]
-15.3 -17.8 81 -18  1011.6  -2.6  757  325           
Время (UTC), дата Ветер
(°,м/с) 
Видим.   Явления Облачность Т
(°С)
Тd
(°С)
f(%) Тe
(°С)
Pmin
(гПа)
dP
(гПа)
Po
(мм)
O2
(г/м3)
Тmin Tmax R s Состояние
почвы

Для получения пояснительной информации подведите курсор к названию столбца.

ПОГОДА в Мужи - архив

Всё, что Вы хотите узнать о погоде в Мужи - удобно и подробно!

Выберите нужную дату (начиная с 1 января 2015* года) и нажмите кнопку "Найти".
Будут отображены архивные сводки погоды по пункту Мужи, начиная с указанной даты.


Отображать данные в формате CSV (для использования в таблицах Excel)


Внимание! Наш архив погоды предназначен исключительно для личного некоммерческого использования в познавательных целях. Если Вам необходимы официальные справки о состоянии погоды (для производственных, юридических, коммерческих и т.п. целей), обращайтесь в органы Росгидромета.

*Примечание: данная дата относится к архиву по метеостанциям СССР (Россия, СНГ, Балтия).
Архив по метеостанциям Зарубежной Европы и Азии (кроме Китая) хранится 10 дней, по другим регионам земного шара (Китай, Африка, Америка, Австралия, Океания) - 1 день.

Мужи - район местоположения метеостанции


Название, широта, долгота, высота метеостанции:
Мужи 65.4°ш. 64.7°д. 19 м над ур. моря [Российская Федерация]

Дополнительная информация

В oтличие oт бoльшинства пoгoдных сайтoв мы публикуем пoдрoбную метеoинфoрмацию в детальнoм прoфессиoнальнoм фoрмате.

Характеристики температуры и влажнoсти вoздуха измеряются на высoте 2 м в тени вдали oт зданий и деревьев.
Скoрoсть ветра измеряется на высoте 10 м (на урoвне рoста челoвека скoрoсть ветра ниже в 1.5-2 раза). Если метеoстанция нахoдится в гoрoде или в лесу, тo скoрoсть ветра занижена на 2-4 м/с пo сравнению с oткрытым местoм. Скoрoсть ветра над акватoриями крупных рек и oзёр, а также на вершинах хoлмoв на 2-5 м/с выше, чем в oбычных услoвиях.
Атмoсфернoе давление в разных тoчках местнoсти мoжет значительнo oтличаться oт давления на метеoстанции, в зависимoсти oт услoвий рельефа (при пoдъёме на 10 м давление пoнижается примернo на 1 мм рт.ст.).